Weather History for Sexton Summit, OR

Change the Weather History Date:

Tuesday, April 30, 2013

  Actual Average Record
Temperature  
Mean Temperature 38 °F -  
Max Temperature 50 °F 53 °F 78 °F (2014)
Min Temperature 28 °F 35 °F 26 °F (2008)
Degree Days  
Heating Degree Days 27    
Moisture  
Dew Point 26 °F    
Average Humidity 74    
Maximum Humidity 93    
Minimum Humidity 37    
Precipitation  
Precipitation 0.00 in - - ()
Sea Level Pressure  
Sea Level Pressure 30.18 in    
Wind  
Wind Speed 7 mph (North)    
Max Wind Speed 15 mph    
Max Gust Speed 32 mph    
Visibility 8 miles    
Events      
Averages and records for this station are not official NWS values.
T = Trace of Precipitation, MM = Missing Value Source: NWS Daily Summary

Daily Weather History Graph

Daily Weather History Graph

Search for Another Location

Airport:

Trip Planner

Search our weather history database for the weather conditions in past years. The results will help you decide how hot, cold, wet, or windy it might be!

Date:

Astronomy

Apr. 30, 2013 Rise Set
Actual Time 6:09 AM PDT 8:12 PM PDT
Civil Twilight 5:38 AM PDT 8:43 PM PDT
Nautical Twilight 5:00 AM PDT 9:21 PM PDT
Astronomical Twilight 4:19 AM PDT 10:03 PM PDT
Moon 12:42 AM PDT (4/30) 10:43 AM PDT (4/30)
Length of Visible Light 15h 05m
Length of Day
14h 03m
Waning Gibbous, 69% of the Moon is Illuminated
Apr 30
Waning Gibbous
May 2
Last Quarter
May 9
New
May 17
First Quarter
May 24
Full

Hourly Weather History & Observations

Time (PDT) Temp. Windchill Dew Point Humidity Pressure Visibility Wind Dir Wind Speed Gust Speed Precip Events Conditions
12:06 AM 35.6 °F 29.2 °F 32.0 °F 87% 30.08 in 10.0 mi North 8.1 mph - N/A   Overcast
12:56 AM 35.1 °F 27.4 °F 30.9 °F 85% 30.08 in 10.0 mi North 10.4 mph 23.0 mph N/A   Overcast
1:45 AM 33.8 °F 28.6 °F 30.2 °F 87% 30.09 in 10.0 mi Variable 5.8 mph 17.3 mph N/A   Scattered Clouds
1:56 AM 32.0 °F 28.7 °F 28.9 °F 88% 30.10 in 10.0 mi Variable 3.5 mph - N/A   Partly Cloudy
2:48 AM 32.0 °F 26.4 °F 30.2 °F 93% 30.09 in 10.0 mi Variable 5.8 mph - N/A   Mostly Cloudy
2:56 AM 30.9 °F 24.3 °F 28.9 °F 92% 30.10 in 10.0 mi Variable 6.9 mph - N/A   Mostly Cloudy
3:04 AM 30.2 °F 21.3 °F 28.4 °F 93% 30.09 in 10.0 mi North 10.4 mph 16.1 mph N/A   Overcast
3:56 AM 30.0 °F 23.2 °F 27.0 °F 88% 30.10 in 10.0 mi North 6.9 mph - N/A   Overcast
4:11 AM 30.2 °F 24.3 °F 26.6 °F 86% 30.10 in 10.0 mi Variable 5.8 mph - N/A   Overcast
4:56 AM 28.9 °F 25.2 °F 27.0 °F 92% 30.12 in 1.8 mi Variable 3.5 mph - N/A   Overcast
5:28 AM 28.4 °F 19.7 °F 26.6 °F 93% 30.11 in 3.0 mi North 9.2 mph 16.1 mph N/A   Overcast
5:44 AM 28.4 °F 23.3 °F 26.6 °F 93% 30.12 in 1.8 mi North 4.6 mph - N/A   Overcast
5:56 AM 28.9 °F 21.9 °F 27.0 °F 92% 30.14 in 1.2 mi Variable 6.9 mph - N/A   Overcast
6:12 AM 28.4 °F 22.2 °F 26.6 °F 93% 30.12 in 1.5 mi Variable 5.8 mph - N/A   Overcast
6:14 AM 28.4 °F 20.4 °F 26.6 °F 93% 30.12 in 1.0 mi North 8.1 mph - N/A   Mist
6:28 AM 28.4 °F 20.4 °F 26.6 °F 93% 30.12 in 0.8 mi North 8.1 mph - N/A   Mist
6:32 AM 28.4 °F 18.0 °F 26.6 °F 93% 30.12 in 1.0 mi North 12.7 mph 18.4 mph N/A   Mist
6:34 AM 28.4 °F 20.4 °F 26.6 °F 93% 30.12 in 2.0 mi North 8.1 mph 18.4 mph N/A   Overcast
6:54 AM 28.4 °F 20.4 °F 26.6 °F 93% 30.13 in 10.0 mi North 8.1 mph 17.3 mph N/A   Overcast
6:56 AM 28.0 °F 20.0 °F 26.1 °F 92% 30.17 in 10.0 mi NNE 8.1 mph 16.1 mph N/A   Overcast
7:56 AM 30.0 °F 24.1 °F 27.0 °F 88% 30.19 in 7.0 mi Variable 5.8 mph - N/A   Overcast
8:13 AM 30.2 °F 20.8 °F 24.8 °F 80% 30.15 in 10.0 mi North 11.5 mph 19.6 mph N/A   Scattered Clouds
8:56 AM 32.0 °F 26.4 °F 25.0 °F 75% 30.21 in 10.0 mi North 5.8 mph 16.1 mph N/A   Clear
9:32 AM 33.8 °F 29.6 °F 26.6 °F 75% 30.16 in 10.0 mi Variable 4.6 mph - N/A   Partly Cloudy
9:56 AM 35.1 °F 31.0 °F 27.0 °F 72% 30.21 in 10.0 mi Variable 4.6 mph - N/A   Clear
10:56 AM 37.9 °F 34.4 °F 26.1 °F 62% 30.22 in 10.0 mi Variable 4.6 mph - N/A   Clear
11:56 AM 45.0 °F 43.5 °F 27.0 °F 49% 30.22 in 10.0 mi Variable 3.5 mph - N/A   Clear
12:56 PM 46.9 °F - 25.0 °F 42% 30.23 in 10.0 mi Variable 3.5 mph - N/A   Clear
1:56 PM 46.9 °F - 25.0 °F 42% 30.25 in 10.0 mi Variable 3.5 mph - N/A   Clear
2:56 PM 48.0 °F - 23.0 °F 37% 30.25 in 10.0 mi Variable 3.5 mph 17.3 mph N/A   Clear
3:56 PM 48.9 °F - 24.1 °F 38% 30.25 in 10.0 mi Variable 5.8 mph - N/A   Clear
4:56 PM 48.0 °F - 24.1 °F 39% 30.25 in 10.0 mi Variable 6.9 mph - N/A   Clear
5:56 PM 46.9 °F - 25.0 °F 42% 30.26 in 10.0 mi North 8.1 mph - N/A   Clear
6:56 PM 43.0 °F 38.2 °F 25.0 °F 49% 30.28 in 10.0 mi North 8.1 mph 23.0 mph N/A   Clear
7:56 PM 39.0 °F 31.4 °F 24.1 °F 55% 30.30 in 10.0 mi North 12.7 mph 21.9 mph N/A   Clear
8:56 PM 37.0 °F 28.1 °F 23.0 °F 57% 30.31 in 10.0 mi North 15.0 mph 31.1 mph N/A   Clear
9:56 PM 37.0 °F 28.5 °F 23.0 °F 57% 30.31 in 10.0 mi North 13.8 mph 32.2 mph N/A   Clear
10:56 PM 36.0 °F 28.0 °F 24.1 °F 62% 30.32 in 10.0 mi NNE 11.5 mph 18.4 mph N/A   Clear
11:56 PM 36.0 °F 28.0 °F 24.1 °F 62% 30.30 in 10.0 mi North 11.5 mph 20.7 mph N/A   Clear